Tracking 31027 objects as of 19-Jul-2025
HD Live streaming from Space Station
objects crossing your sky now

COSMOS 963

Track COSMOS 963 now!
10-day predictions
COSMOS 963 is classified as:


NORAD ID: 10491
Int'l Code: 1977-109A
Perigee: 1,189.5 km
Apogee: 1,212.3 km
Inclination: 82.9 °
Period: 109.3 minutes
Semi major axis: 7571 km
RCS: 3.0327 m2 (large)
Launch date: November 24, 1977
Source: Commonwealth of Independent States (former USSR) (CIS)
Launch site: PLESETSK MISSILE AND SPACE COMPLEX (PKMTR)
Your satellite tracking list
Your tracking list is empty




NASA's NSSDC Master Catalog

Two Line Element Set (TLE):
1 10491U 77109A   25199.80876009  .00000132  00000-0  30615-3 0  9997
2 10491  82.9326 133.5475 0015052 190.7762 185.5226 13.17645825291801
Source of the keplerian elements: AFSPC